Lambertville, MI

4:14 AM EST on February 12, 2016 (GMT -0500)
Toledo Suburban Airport

Weather History for KDUH - April, 2014

Change the Weather History Date:

Saturday, April 26, 2014

  Actual Average (KTOL) Record (KTOL)
Temperature  
Mean Temperature 51 °F 53 °F  
Max Temperature 60 °F 64 °F 89 °F (1915)
Min Temperature 41 °F 42 °F 25 °F (1972)
Degree Days  
Heating Degree Days 14 12  
Month to date heating degree days 431  
Since 1 July heating degree days 5857  
Cooling Degree Days 0 0  
Month to date cooling degree days 0  
Year to date cooling degree days 0  
Growing Degree Days 1 (Base 50)    
Moisture  
Dew Point 36 °F    
Average Humidity 56    
Maximum Humidity 81    
Minimum Humidity 31    
Precipitation  
Precipitation 0.00 in 0.10 in 1.02 in (2007)
Month to date precipitation 2.77  
Year to date precipitation 9.37  
Snow  
Snow 0.00 in 0.10 in - ()
Month to date snowfall 1.3  
Since 1 July snowfall 37.5  
Snow Depth -    
Sea Level Pressure  
Sea Level Pressure 29.92 in    
Wind  
Wind Speed 7 mph (NW)    
Max Wind Speed 15 mph    
Max Gust Speed 21 mph    
Visibility 10 miles    
Events      
T = Trace of Precipitation, MM = Missing Value Source: NWS Daily Summary

Daily Weather History Graph

Daily Weather History Graph

Search for Another Location

Airport or City:

Trip Planner

Search our weather history database for the weather conditions in past years. The results will help you decide how hot, cold, wet, or windy it might be!

Date:

Astronomy

Apr. 26, 2014 Rise Set
Actual Time 6:38 AM EDT 8:27 PM EDT
Civil Twilight 6:08 AM EDT 8:57 PM EDT
Nautical Twilight 5:32 AM EDT 9:33 PM EDT
Astronomical Twilight 4:53 AM EDT 10:12 PM EDT
Moon 5:04 AM EDT (4/26) 5:52 PM EDT (4/26)
Length of Visible Light 14h 49m
Length of Day
13h 49m
Waning Crescent, 8% of the Moon is Illuminated
Apr 26
Waning Crescent
Apr 29
New
May 6
First Quarter
May 14
Full
May 21
Last Quarter

Hourly Weather History & Observations

Time (EDT) Temp. Windchill Dew Point Humidity Pressure Visibility Wind Dir Wind Speed Gust Speed Precip Events Conditions
12:15 AM 46.4 °F 44.3 °F 41.0 °F 81% 29.84 in 10.0 mi SSW 4.6 mph - N/A   Overcast
12:35 AM 48.2 °F - 39.2 °F 71% 29.84 in 10.0 mi SSW 4.6 mph - N/A   Mostly Cloudy
1:15 AM 46.4 °F 45.2 °F 39.2 °F 76% 29.84 in 10.0 mi SW 3.5 mph - N/A   Scattered Clouds
1:35 AM 46.4 °F - 39.2 °F 76% 29.82 in 10.0 mi Calm Calm - N/A   Scattered Clouds
1:55 AM 44.6 °F - 37.4 °F 76% 29.82 in 10.0 mi Calm Calm - N/A   Scattered Clouds
2:15 AM 42.8 °F - 37.4 °F 81% 29.82 in 10.0 mi Calm Calm - N/A   Mostly Cloudy
2:35 AM 44.6 °F 42.2 °F 39.2 °F 81% 29.81 in 10.0 mi South 4.6 mph - N/A   Mostly Cloudy
2:55 AM 48.2 °F - 39.2 °F 71% 29.80 in 10.0 mi SSW 5.8 mph - N/A   Mostly Cloudy
3:15 AM 50.0 °F - 39.2 °F 66% 29.79 in 10.0 mi SSW 5.8 mph - N/A   Overcast
3:35 AM 50.0 °F - 39.2 °F 66% 29.79 in 10.0 mi SSW 6.9 mph - N/A   Mostly Cloudy
3:55 AM 50.0 °F - 39.2 °F 66% 29.79 in 10.0 mi SW 5.8 mph - N/A   Overcast
4:15 AM 50.0 °F - 41.0 °F 71% 29.78 in 10.0 mi SSW 5.8 mph - N/A   Overcast
4:35 AM 50.0 °F - 41.0 °F 71% 29.78 in 10.0 mi SSW 5.8 mph - N/A   Overcast
4:55 AM 51.8 °F - 39.2 °F 62% 29.79 in 10.0 mi SW 3.5 mph - N/A   Overcast
5:15 AM 51.8 °F - 41.0 °F 67% 29.80 in 10.0 mi West 4.6 mph - N/A   Overcast
5:35 AM 51.8 °F - 41.0 °F 67% 29.79 in 10.0 mi WSW 3.5 mph - N/A   Overcast
5:55 AM 51.8 °F - 41.0 °F 67% 29.79 in 10.0 mi WSW 4.6 mph - N/A   Overcast
6:15 AM 51.8 °F - 41.0 °F 67% 29.80 in 10.0 mi SW 4.6 mph - N/A   Overcast
6:35 AM 50.0 °F - 41.0 °F 71% 29.81 in 10.0 mi West 6.9 mph - N/A   Overcast
6:55 AM 50.0 °F - 41.0 °F 71% 29.82 in 10.0 mi West 3.5 mph - N/A   Overcast
7:15 AM 50.0 °F - 41.0 °F 71% 29.83 in 10.0 mi WNW 5.8 mph - N/A   Overcast
7:35 AM 50.0 °F - 41.0 °F 71% 29.85 in 10.0 mi West 6.9 mph - N/A   Overcast
7:55 AM 50.0 °F - 39.2 °F 66% 29.85 in 10.0 mi NW 8.1 mph - N/A   Overcast
8:15 AM 50.0 °F - 37.4 °F 62% 29.86 in 10.0 mi NW 8.1 mph - N/A   Overcast
8:35 AM 50.0 °F - 37.4 °F 62% 29.87 in 10.0 mi NW 8.1 mph - N/A   Overcast
8:55 AM 50.0 °F - 35.6 °F 58% 29.87 in 10.0 mi NW 9.2 mph - N/A   Overcast
9:15 AM 51.8 °F - 33.8 °F 50% 29.87 in 10.0 mi NW 13.8 mph 20.7 mph N/A   Mostly Cloudy
9:35 AM 51.8 °F - 33.8 °F 50% 29.88 in 10.0 mi WNW 11.5 mph 18.4 mph N/A   Scattered Clouds
10:15 AM 51.8 °F - 32.0 °F 47% 29.89 in 10.0 mi WNW 12.7 mph 19.6 mph N/A   Clear
10:35 AM 53.6 °F - 32.0 °F 44% 29.89 in 10.0 mi NW 12.7 mph 18.4 mph N/A   Clear
10:55 AM 55.4 °F - 32.0 °F 41% 29.90 in 10.0 mi WNW 10.4 mph 19.6 mph N/A   Clear
11:15 AM 55.4 °F - 32.0 °F 41% 29.90 in 10.0 mi WNW 15.0 mph 18.4 mph N/A   Clear
11:35 AM 55.4 °F - 32.0 °F 41% 29.90 in 10.0 mi NNW 11.5 mph 16.1 mph N/A   Clear
11:55 AM 55.4 °F - 32.0 °F 41% 29.91 in 10.0 mi WNW 10.4 mph 17.3 mph N/A   Clear
12:15 PM 57.2 °F - 32.0 °F 38% 29.92 in 10.0 mi NW 9.2 mph 19.6 mph N/A   Clear
12:35 PM 57.2 °F - 32.0 °F 38% 29.91 in 10.0 mi NW 11.5 mph 19.6 mph N/A   Clear
12:55 PM 59.0 °F - 32.0 °F 36% 29.90 in 10.0 mi NNW 11.5 mph 19.6 mph N/A   Clear
1:15 PM 59.0 °F - 32.0 °F 36% 29.91 in 10.0 mi WNW 15.0 mph 19.6 mph N/A   Clear
1:35 PM 59.0 °F - 32.0 °F 36% 29.91 in 10.0 mi NNW 11.5 mph 19.6 mph N/A   Clear
1:55 PM 59.0 °F - 32.0 °F 36% 29.92 in 10.0 mi WNW 11.5 mph 16.1 mph N/A   Clear
2:15 PM 59.0 °F - 32.0 °F 36% 29.92 in 10.0 mi NNW 8.1 mph 16.1 mph N/A   Clear
2:35 PM 59.0 °F - 32.0 °F 36% 29.93 in 10.0 mi NNW 12.7 mph 17.3 mph N/A   Clear
2:55 PM 60.8 °F - 32.0 °F 34% 29.93 in 10.0 mi NNW 12.7 mph 18.4 mph N/A   Clear
3:15 PM 60.8 °F - 32.0 °F 34% 29.94 in 10.0 mi NNW 12.7 mph 17.3 mph N/A   Clear
3:35 PM 60.8 °F - 32.0 °F 34% 29.95 in 10.0 mi WNW 11.5 mph 19.6 mph N/A   Clear
3:55 PM 60.8 °F - 30.2 °F 31% 29.95 in 10.0 mi NNW 11.5 mph 19.6 mph N/A   Clear
4:15 PM 60.8 °F - 32.0 °F 34% 29.95 in 10.0 mi North 10.4 mph 18.4 mph N/A   Clear
4:35 PM 59.0 °F - 32.0 °F 36% 29.95 in 10.0 mi North 13.8 mph 18.4 mph N/A   Clear
4:55 PM 60.8 °F - 32.0 °F 34% 29.97 in 10.0 mi North 10.4 mph 19.6 mph N/A   Clear
5:15 PM 59.0 °F - 32.0 °F 36% 29.98 in 10.0 mi NNW 8.1 mph 17.3 mph N/A   Clear
5:35 PM 59.0 °F - 32.0 °F 36% 29.98 in 10.0 mi North 6.9 mph - N/A   Clear
5:55 PM 59.0 °F - 32.0 °F 36% 29.98 in 10.0 mi Calm Calm - N/A   Clear
6:15 PM 59.0 °F - 32.0 °F 36% 29.98 in 10.0 mi NNW 3.5 mph - N/A   Clear
6:35 PM 59.0 °F - 30.2 °F 34% 29.99 in 10.0 mi NNE 3.5 mph - N/A   Clear
6:55 PM 59.0 °F - 30.2 °F 34% 29.99 in 10.0 mi North 3.5 mph - N/A   Clear
7:15 PM 53.6 °F - 37.4 °F 54% 30.00 in 10.0 mi East 11.5 mph 16.1 mph N/A   Clear
7:35 PM 51.8 °F - 37.4 °F 58% 30.01 in 10.0 mi East 9.2 mph 18.4 mph N/A   Clear
7:55 PM 50.0 °F - 37.4 °F 62% 30.02 in 10.0 mi East 10.4 mph 16.1 mph N/A   Clear
8:15 PM 48.2 °F - 35.6 °F 62% 30.03 in 10.0 mi East 9.2 mph 18.4 mph N/A   Clear
8:35 PM 46.4 °F 42.9 °F 35.6 °F 66% 30.04 in 10.0 mi East 6.9 mph - N/A   Clear
8:55 PM 46.4 °F 42.9 °F 35.6 °F 66% 30.04 in 10.0 mi East 6.9 mph - N/A   Clear
9:15 PM 46.4 °F 42.9 °F 35.6 °F 66% 30.05 in 10.0 mi East 6.9 mph - N/A   Clear
9:35 PM 46.4 °F 43.5 °F 35.6 °F 66% 30.06 in 10.0 mi East 5.8 mph - N/A   Clear
9:55 PM 44.6 °F 39.2 °F 35.6 °F 71% 30.07 in 10.0 mi East 10.4 mph 18.4 mph N/A   Clear
10:15 PM 44.6 °F 38.4 °F 35.6 °F 71% 30.08 in 10.0 mi East 12.7 mph 20.7 mph N/A   Clear
10:35 PM 42.8 °F 38.0 °F 35.6 °F 76% 30.08 in 10.0 mi ENE 8.1 mph 16.1 mph N/A   Scattered Clouds
10:55 PM 42.8 °F 37.5 °F 35.6 °F 76% 30.09 in 10.0 mi East 9.2 mph - N/A   Scattered Clouds
11:15 PM 42.8 °F 37.0 °F 35.6 °F 76% 30.10 in 10.0 mi ENE 10.4 mph - N/A   Scattered Clouds
11:35 PM 42.8 °F 39.3 °F 35.6 °F 76% 30.09 in 10.0 mi East 5.8 mph - N/A   Scattered Clouds
11:55 PM 41.0 °F 35.8 °F 35.6 °F 81% 30.09 in 10.0 mi ENE 8.1 mph - N/A   Scattered Clouds